Location: Malvern Link
(52.1333°N, 2.3000°W)
Time: 08:25:02
(UTC+00:00)

AO-92 - Pass Details

Date: 08 July 2022
Orbit: 470 x 481 km, 97.4° (Epoch: 07 August)

Event Time Altitude Azimuth Distance (km) Brightness Sun altitude
Exits shadow 22:51:34 11° 211° (SSW) 1,587 ? -13.3°
Maximum altitude 22:54:21 25° 266° (W) 1,023 ? -13.5°
Drops below altitude 10° 22:57:21 10° 323° (NW) 1,676 ? -13.6°
Sets 22:59:43 0° 337° (NNW) 2,563 ? -13.7°
